Regional Weather Roundup
Issued by NWS Goodland, KS

Home | Current Version | Previous Version | Text Only | Print | Product List | Glossary Off
Versions: 1 2 3 4 5 6 7 8 9 10 11 12 13 14 15 16 17 18 19 20 21 22 23 24 25 26 27 28 29 30 31 32 33 34 35 36 37 38 39 40 41 42 43 44 45 46 47 48 49 50

406
ASUS43 KGLD 121859
RWRGLD

GOODLAND FORECAST AREA HOURLY WEATHER ROUNDUP
NATIONAL WEATHER SERVICE GOODLAND KS
1200 PM MST FRI FEB 12 2016

...OFFICIAL OBSERVATIONS...

CITY           SKY/WX    TMP DP  RH WIND       PRES   REMARKS
GOODLAND KS    CLOUDY    41  33  73 E15       30.38S
HILL CITY KS   CLOUDY    36  30  79 NE10      30.46S
IMPERIAL NEB   CLOUDY    34  31  88 E8        30.40F
MCCOOK NEB     CLOUDY    34  30  85 E5        30.43F
AKRON CO       CLOUDY    48  31  51 E9        30.32F
BURLINGTON CO  CLOUDY    46  31  55 E12       30.33F
LIMON CO       CLOUDY    49  29  46 S8        30.30F
$$

...UNOFFICIAL OBSERVATIONS...

CITY           SKY/WX    TMP DP  RH WIND       PRES   REMARKS
COLBY KS       CLOUDY    34  34 100 NE12      30.42S
GOVE KS          N/A     35  32  89 MISG        N/A
LENORA KS        N/A     34  32  92 MISG        N/A
NORTON KS      CLOUDY    36  27  69 NE7       30.43
SHARON SPRINGS   N/A     52  37  56 CALM        N/A
KIT CARSON CO    N/A     54  30  39 MISG        N/A
YUMA CO          N/A     43  34  71 E12         N/A
$$




USA.gov is the U.S. government's official web portal to all federal, state and local government web resources and services.